Location: Most
(50.5330°N, 13.6500°E)
Time: 05:47:48
(UTC+02:00)

ISS - Pass Details

Date: 20 May 2021
Orbit: 417 x 422 km, 51.6° (Epoch: 13 June)

Event Time Altitude Azimuth Distance (km) Brightness Sun altitude
Rises 01:19:11 0° 286° (WNW) 2,371 0.2 -19.4°
Reaches altitude 10° 01:21:19 10° 282° (WNW) 1,506 -0.9 -19.4°
Enters shadow 01:23:07 28° 269° (W) 828 -2.4 -19.3°
